Honda - stal-radiator.ru

найдено: 6347 роликов
Honda stepwgn 2003 год 2756 28.10.2017 00:15:42
Зеркало honda accord cc7 78 28.10.2017 00:00:31
Honda civic type r vs 440 28.10.2017 00:01:15
Honda дилеры в москве 856 27.10.2017 00:09:07
Бампер honda integra dc5 6980 27.10.2017 00:04:06
Габариты honda hr v 756 27.10.2017 00:00:35
Honda cr 85 к 3 27.10.2017 00:11:29
Honda bf 5 лодочный мотор 1864 27.10.2017 00:02:02
Honda legend kb1 manual 41 27.10.2017 00:04:44
Honda accord 9 литые диски 240 27.10.2017 00:04:25
Honda is parts москва 0 27.10.2017 00:00:19
Honda дилер в москве 24 27.10.2017 00:07:01
800 honda vfr vtec 2946 27.10.2017 00:37:46
Honda dio zx 28 тюнинг 1122 27.10.2017 00:00:39
Вариатор honda fit 2002 659 27.10.2017 00:00:42
Car city driving honda accord 5 26.10.2017 00:15:27
Задний фонарь honda crv 195 26.10.2017 00:03:54
200 cr v honda 40387 26.10.2017 00:23:31
Honda civic coupe 95 734 26.10.2017 00:45:55
Honda civic 8 type r 285 26.10.2017 00:02:58
Honda element в салоне 285 26.10.2017 00:01:06
750 shadow rs honda 6808 26.10.2017 00:19:30
Honda 750 vt aero 11 26.10.2017 00:00:51
Генератор honda 4 6 1707 25.10.2017 00:01:49
Need for speed honda nsx 7785 25.10.2017 00:31:52
Резина на honda cbr 600 240 25.10.2017 00:12:48
Honda crv не заводится 246 25.10.2017 00:01:11
Honda cr v 1998 радиатор 1341 25.10.2017 00:05:27
Суппорт honda cr v 21 25.10.2017 00:34:17
Honda cb s 600 753 25.10.2017 00:04:17
Honda civic 1997 1 5 254 24.10.2017 00:24:24
Honda vt 500 bobber 10 24.10.2017 00:01:50